Regional Weather Roundup
Issued by NWS Jackson, KY

Home | Current Version | Previous Version | Graphics & Text | Print | Product List | Glossary On
Versions: 1 2 3 4 5 6 7 8 9 10 11 12 13 14 15 16 17 18 19 20 21 22 23 24 25
000
ASUS43 KJKL 162310
RWRJKL

EAST KENTUCKY HOURLY WEATHER ROUNDUP
NATIONAL WEATHER SERVICE JACKSON KY
600 PM EST FRI FEB 16 2018

NOTE: "FAIR" INDICATES FEW OR NO CLOUDS BELOW 12,000 FEET WITH
NO SIGNIFICANT WEATHER AND/OR OBSTRUCTIONS TO VISIBILITY.

* THESE REPORTS ARE NOT UNDER NWS QUALITY CONTROL AND MAY NOT
  REPORT WEATHER SUCH AS PRECIPITATION AND FOG.

KYZ079-080-083-085-087-088-110-112-115-119-120-170000
...EASTERN KENTUCKY...

CITY           SKY/WX    TMP DP  RH WIND       PRES   REMARKS
JACKSON        MOCLDY    42  38  85 VRB6      30.20R
LONDON         CLOUDY    43  39  86 NW6       30.21R
SOMERSET*      CLOUDY    43  37  81 N6        30.25R
WILLIAMSBURG*  CLOUDY    43  41  93 NW7       30.21R
MIDDLESBORO*   CLOUDY    46  44  93 NW13G18   30.20R
HARLAN APT*    CLOUDY    45  39  81 SW9G17    30.18R
PIKE CO APT*   CLOUDY    42  42 100 NW13      30.16R
BIG SANDY APT* CLOUDY    42  40  93 NW6       30.19R
MOREHEAD APT*  CLOUDY    41  34  75 NW7G15    30.24R
ASHLAND*       CLOUDY    43  36  76 VRB6      30.22R
$$

KYZ035-036-041-042-044-050-067-078-099-170000
...CENTRAL KENTUCKY...

CITY           SKY/WX    TMP DP  RH WIND       PRES   REMARKS
MT STERLING*   CLOUDY    41  36  81 N7        30.24R
FLEMING/MASON* CLOUDY    38  32  77 N6        30.25R WCI  34
DANVILLE*      CLOUDY    39  36  87 N9        30.25R WCI  33
LEXINGTON      CLOUDY    40  33  76 NW13G20   30.24R WCI  32
FRANKFORT      CLOUDY    40  31  70 NW8       30.24R WCI  34
LOUISVILLE     CLOUDY    41  33  73 N10       30.27R
LEBANON*       CLOUDY    39  34  81 N13       30.26R WCI  32
GLASGOW*       CLOUDY    42  41  93 N8        30.25R FOG
BOWLING GREEN  CLOUDY    43  37  79 NW6       30.27R
$$

KYZ091>093-OHZ055-061-077-WVZ005-015-034-035-042-170000
...SOUTHERN OHIO/WEST VIRGINIA...

CITY           SKY/WX    TMP DP  RH WIND       PRES   REMARKS
COVINGTON      MOCLDY    38  29  70 N13       30.25R WCI  30
COLUMBUS       CLOUDY    36  26  67 N13       30.22R WCI  27
DAYTON         CLOUDY    35  27  72 N10       30.25R WCI  27
WILMINGTON     MOCLDY    34  28  79 N8        30.24R WCI  27
HUNTINGTON     CLOUDY    43  35  73 NW8       30.19R
CHARLESTON     CLOUDY    42  37  82 NW7G20    30.17R
BECKLEY        LGT RAIN  40  38  93 NW10      30.09R FOG     WCI  33
BLUEFIELD      CLOUDY    41  38  89 NW9G18    30.08R
LOGAN CO APT*  CLOUDY    39  37  93 NW10G16   30.15R FOG     WCI  32
$$

VAZ002-007-008-TNZ017-027-036-066-071-170000
...SOUTHWEST VIRGINIA/EAST TENNESSEE...

CITY           SKY/WX    TMP DP  RH WIND       PRES   REMARKS
WISE*          LGT RAIN  43  43 100 NW7       30.14R
JONESVILLE*    CLOUDY    46  43  87 CALM      30.19R
ABINGDON*      DRIZZLE   50  46  86 N7G18     30.10R
BRISTOL        LGT RAIN  51  50  96 N7        30.11R
MORRISTOWN*    CLOUDY    46  45  93 N13       30.15R
SEVIERVILLE*   CLOUDY    48  48 100 NW6       30.17R FOG
KNOXVILLE      LGT RAIN  48  47  96 N6        30.17R
LAFOLLETTE*    CLOUDY    46  43  87 VRB5G12   30.22R
OAK RIDGE      LGT RAIN  49  45  86 VRB7G18   30.19R
CROSSVILLE     CLOUDY    43  41  93 N9        30.18R FOG
NASHVILLE      CLOUDY    45  39  79 N9        30.25S
$$

...KEY TO REMARKS...
VSB - VISIBILITY IN MILES
WCI - WIND CHILL INDEX
HX  - HEAT INDEX

$$




USA.gov is the U.S. government's official web portal to all federal, state and local government web resources and services.